Ironwood, MI

7:02 AM CST on February 19, 2017 (GMT -0600)
Gogebic-Iron County

Weather History for KIWD - June, 2012

Change the Weather History Date:

Thursday, June 14, 2012

  Actual Average Record
Temperature  
Mean Temperature 58 °F -  
Max Temperature 64 °F 69 °F 86 °F (2007)
Min Temperature 53 °F 48 °F 35 °F (1997)
Degree Days  
Heating Degree Days 6    
Growing Degree Days 8 (Base 50)    
Moisture  
Dew Point 50 °F    
Average Humidity 70    
Maximum Humidity 88    
Minimum Humidity 42    
Precipitation  
Precipitation 0.58 in - - ()
Sea Level Pressure  
Sea Level Pressure 29.90 in    
Wind  
Wind Speed 12 mph (SSE)    
Max Wind Speed 20 mph    
Max Gust Speed 34 mph    
Visibility 10 miles    
Events Thunderstorm    
Averages and records for this station are not official NWS values.
T = Trace of Precipitation, MM = Missing Value Source: NWS Daily Summary

Daily Weather History Graph

Daily Weather History Graph

Search for Another Location

Airport or City:

Trip Planner

Search our weather history database for the weather conditions in past years. The results will help you decide how hot, cold, wet, or windy it might be!

Date:

Astronomy

Jun. 14, 2012 Rise Set
Actual Time 5:06 AM CDT 8:55 PM CDT
Civil Twilight 4:27 AM CDT 9:34 PM CDT
Nautical Twilight 3:34 AM CDT 10:27 PM CDT
Astronomical Twilight 2:18 AM CDT 11:43 PM CDT
Moon 2:01 AM CDT (6/14) 4:28 PM CDT (6/14)
Length of Visible Light 17h 06m
Length of Day
15h 48m
Waning Crescent, 21% of the Moon is Illuminated
Jun 14
Waning Crescent
Jun 19
New
Jun 26
First Quarter
Jul 3
Full
Jul 10
Last Quarter

Hourly Weather History & Observations

Time (CDT) Temp. Dew Point Humidity Pressure Visibility Wind Dir Wind Speed Gust Speed Precip Events Conditions
5:15 AM 60.8 °F 44.6 °F 55% 29.99 in 10.0 mi SSE 9.2 mph - N/A   Overcast
5:35 AM 59.0 °F 44.6 °F 59% 29.99 in 10.0 mi SE 9.2 mph - N/A   Overcast
7:35 AM 62.6 °F 42.8 °F 48% 29.97 in 10.0 mi SSE 11.5 mph 20.7 mph N/A   Mostly Cloudy
7:55 AM 62.6 °F 41.0 °F 45% 29.98 in 10.0 mi SSE 12.7 mph 19.6 mph N/A   Overcast
9:15 AM 62.6 °F 39.2 °F 42% 29.96 in 10.0 mi South 12.7 mph 21.9 mph N/A   Mostly Cloudy
9:35 AM 60.8 °F 41.0 °F 48% 29.97 in 10.0 mi SSE 15.0 mph 25.3 mph N/A   Mostly Cloudy
9:55 AM 60.8 °F 39.2 °F 45% 29.97 in 10.0 mi SSE 12.7 mph 18.4 mph N/A   Partly Cloudy
10:15 AM 60.8 °F 39.2 °F 45% 29.98 in 10.0 mi SSE 9.2 mph 18.4 mph N/A   Mostly Cloudy
10:55 AM 55.4 °F 42.8 °F 63% 30.07 in 10.0 mi West 9.2 mph - 0.02 in   Overcast
11:15 AM 53.6 °F 44.6 °F 72% 30.08 in 10.0 mi SW 5.8 mph - 0.06 in   Overcast
11:35 AM 53.6 °F 44.6 °F 72% 30.07 in 10.0 mi Calm Calm - 0.11 in   Overcast
11:55 AM 53.6 °F 46.4 °F 77% 30.04 in 6.0 mi East 9.2 mph - 0.17 in   Mostly Cloudy
12:15 PM 53.6 °F 46.4 °F 77% 30.03 in 7.0 mi SE 11.5 mph - 0.09 in Thunderstorm Thunderstorm
12:35 PM 53.6 °F 46.4 °F 77% 29.99 in 8.0 mi SE 11.5 mph 18.4 mph 0.18 in Thunderstorm Thunderstorm
12:55 PM 53.6 °F 48.2 °F 82% 29.95 in 10.0 mi SSE 17.3 mph 27.6 mph 0.22 in   Overcast
1:15 PM 55.4 °F 48.2 °F 77% 29.94 in 10.0 mi SSE 16.1 mph 31.1 mph 0.01 in   Mostly Cloudy
1:35 PM 55.4 °F 50.0 °F 82% 29.87 in 10.0 mi SSE 19.6 mph 27.6 mph 0.01 in   Mostly Cloudy
1:55 PM 55.4 °F 51.8 °F 88% 29.82 in 10.0 mi SSE 17.3 mph 34.5 mph 0.02 in   Clear
2:15 PM 57.2 °F 51.8 °F 82% 29.83 in 10.0 mi SSE 17.3 mph 28.8 mph N/A   Clear
2:35 PM 59.0 °F 53.6 °F 82% 29.85 in 10.0 mi SSE 12.7 mph 24.2 mph N/A   Scattered Clouds
2:55 PM 60.8 °F 53.6 °F 77% 29.90 in 10.0 mi South 12.7 mph 29.9 mph N/A   Mostly Cloudy
3:15 PM 60.8 °F 53.6 °F 77% 29.89 in 10.0 mi South 13.8 mph 25.3 mph N/A   Mostly Cloudy
3:35 PM 60.8 °F 53.6 °F 77% 29.88 in 10.0 mi South 15.0 mph 26.5 mph N/A   Mostly Cloudy
3:55 PM 60.8 °F 53.6 °F 77% 29.86 in 10.0 mi SSE 11.5 mph 23.0 mph N/A   Overcast
4:15 PM 60.8 °F 53.6 °F 77% 29.93 in 10.0 mi SW 3.5 mph 19.6 mph N/A Thunderstorm Thunderstorm
4:35 PM 60.8 °F 53.6 °F 77% 29.90 in 10.0 mi SSE 15.0 mph 20.7 mph 0.03 in Thunderstorm Thunderstorm
4:55 PM 60.8 °F 53.6 °F 77% 29.87 in 10.0 mi SSE 16.1 mph 24.2 mph 0.03 in   Mostly Cloudy
5:15 PM 60.8 °F 53.6 °F 77% 29.89 in 10.0 mi SSE 11.5 mph 20.7 mph 0.01 in Thunderstorm Overcast
5:35 PM 60.8 °F 53.6 °F 77% 29.84 in 10.0 mi SE 11.5 mph 24.2 mph 0.01 in Thunderstorm Thunderstorm
5:55 PM 60.8 °F 53.6 °F 77% 29.84 in 10.0 mi SSE 13.8 mph 20.7 mph 0.01 in   Partly Cloudy
6:15 PM 60.8 °F 53.6 °F 77% 29.87 in 7.0 mi SSE 11.5 mph 19.6 mph 0.02 in Thunderstorm Thunderstorm
6:35 PM 60.8 °F 53.6 °F 77% 29.85 in 10.0 mi SSE 13.8 mph 23.0 mph 0.05 in Thunderstorm Thunderstorm
6:55 PM 60.8 °F 53.6 °F 77% 29.84 in 10.0 mi South 15.0 mph 28.8 mph 0.05 in   Overcast
7:15 PM 60.8 °F 53.6 °F 77% 29.83 in 10.0 mi South 17.3 mph 29.9 mph 0.06 in Thunderstorm Overcast
7:35 PM 62.6 °F 53.6 °F 72% 29.83 in 10.0 mi South 18.4 mph 28.8 mph 0.06 in   Overcast
7:55 PM 64.4 °F 53.6 °F 68% 29.82 in 10.0 mi South 16.1 mph 28.8 mph 0.06 in   Overcast
8:35 PM 64.4 °F 51.8 °F 64% 29.84 in 10.0 mi South 17.3 mph 29.9 mph N/A   Scattered Clouds
8:55 PM 64.4 °F 51.8 °F 64% 29.82 in 10.0 mi South 18.4 mph 27.6 mph N/A   Clear
9:15 PM 64.4 °F 53.6 °F 68% 29.81 in 10.0 mi SSE 16.1 mph 28.8 mph N/A   Mostly Cloudy
9:55 PM 64.4 °F 53.6 °F 68% 29.81 in 10.0 mi SSE 13.8 mph 19.6 mph N/A   Scattered Clouds
10:15 PM 62.6 °F 53.6 °F 72% 29.84 in 10.0 mi South 8.1 mph - N/A   Overcast
10:35 PM 62.6 °F 53.6 °F 72% 29.84 in 10.0 mi South 9.2 mph 16.1 mph N/A   Mostly Cloudy
10:55 PM 64.4 °F 53.6 °F 68% 29.83 in 10.0 mi South 8.1 mph 16.1 mph N/A   Scattered Clouds
11:15 PM 64.4 °F 53.6 °F 68% 29.84 in 10.0 mi South 6.9 mph - N/A   Mostly Cloudy
11:35 PM 64.4 °F 53.6 °F 68% 29.87 in 10.0 mi West 5.8 mph - N/A   Overcast
11:55 PM 62.6 °F 53.6 °F 72% 29.88 in 10.0 mi West 5.8 mph - N/A   Overcast